FW5316 Weather Reports


Display with metric or nautical units.
time (UTC)temp
F
wind
direction
speed
MPH
gust
MPH
rain 1hr
in
rain 24hr
in
rain mn
in
humidity
%
barometer
mb
20260503222015 73 268 6.0 11.0 0.00 0.00 0.00 52 1014.2
20260503221015 73 236 5.0 12.0 0.00 0.00 0.00 53 1014.2
20260503220015 72 281 5.0 11.0 0.00 0.00 0.00 54 1014.4
20260503215015 72 293 6.0 12.0 0.00 0.00 0.00 54 1014.6
20260503214015 72 272 5.0 11.0 0.00 0.00 0.00 56 1014.6
20260503213015 71 289 5.0 11.0 0.00 0.00 0.00 57 1014.5
20260503212015 71 290 7.0 16.0 0.00 0.00 0.00 57 1014.7
20260503211015 71 269 5.0 11.0 0.00 0.00 0.00 57 1014.8
20260503210016 71 289 6.0 13.0 0.00 0.00 0.00 57 1014.8
20260503205015 71 290 8.0 17.0 0.00 0.00 0.00 57 1014.7
20260503204015 72 310 8.0 17.0 0.00 0.00 0.00 56 1014.7
20260503203017 73 275 3.0 11.0 0.00 0.00 0.00 56 1014.8
20260503202037 73 298 8.0 15.0 0.00 0.00 0.00 57 1014.8
20260503201035 73 299 6.0 13.0 0.00 0.00 0.00 58 1014.9
20260503200017 73 272 7.0 16.0 0.00 0.00 0.00 58 1015.0
20260503195017 72 276 5.0 14.0 0.00 0.00 0.00 60 1015.1
20260503194017 71 268 5.0 11.0 0.00 0.00 0.00 60 1015.2
20260503193036 71 269 5.0 10.0 0.00 0.00 0.00 61 1015.2
20260503192017 70 269 6.0 14.0 0.00 0.00 0.00 61 1015.2
20260503191017 71 270 6.0 14.0 0.00 0.00 0.00 60 1015.1
20260503190017 71 273 8.0 12.0 0.00 0.00 0.00 60 1015.1
20260503185016 71 258 6.0 11.0 0.00 0.00 0.00 60 1015.0
20260503184017 72 279 7.0 13.0 0.00 0.00 0.00 60 1015.1
20260503183017 72 284 6.0 12.0 0.00 0.00 0.00 60 1015.0
20260503182017 72 264 4.0 11.0 0.00 0.00 0.00 60 1015.0
20260503181016 72 232 3.0 7.0 0.00 0.00 0.00 60 1015.0
20260503180015 71 312 4.0 10.0 0.00 0.00 0.00 62 1015.0
20260503175016 70 261 3.0 6.0 0.00 0.00 0.00 63 1015.0
20260503174016 70 292 2.0 9.0 0.00 0.00 0.00 64 1015.0
20260503173016 69 292 3.0 8.0 0.00 0.00 0.00 64 1015.1
20260503172016 69 274 3.0 9.0 0.00 0.00 0.00 64 1015.0
20260503171057 68 31 1.0 3.0 0.00 0.00 0.00 65 1015.0
20260503131016 62 337 3.0 6.0 0.00 0.00 0.00 76 1013.9
20260503081016 62 315 0.0 1.0 0.00 0.00 0.00 78 1014.4
20260503072016 62 0.0 0.0 0.00 0.00 0.00 78 1014.8
20260503071016 62 315 1.0 3.0 0.00 0.00 0.00 78 1014.8
20260503055037 61 285 2.0 6.0 0.00 0.00 0.00 80 1014.5
20260503054016 61 293 3.0 6.0 0.00 0.00 0.00 80 1014.6
20260503053016 61 299 1.0 7.0 0.00 0.00 0.00 80 1014.4
20260503052016 61 307 2.0 6.0 0.00 0.00 0.00 80 1014.3
20260503051016 61 275 3.0 7.0 0.00 0.00 0.00 80 1014.1
20260503050016 61 274 3.0 7.0 0.00 0.00 0.00 80 1013.8
20260503045017 61 283 2.0 5.0 0.00 0.00 0.00 79 1013.6
20260503044016 61 279 1.0 4.0 0.00 0.00 0.00 79 1013.5
20260503043016 61 265 2.0 4.0 0.00 0.00 0.00 79 1013.3
20260503042016 62 293 2.0 4.0 0.00 0.00 0.00 79 1013.3
20260503041016 62 301 2.0 4.0 0.00 0.00 0.00 78 1013.2
20260503040016 62 295 2.0 7.0 0.00 0.00 0.00 78 1012.8
20260503035016 62 310 2.0 5.0 0.00 0.00 0.00 77 1012.5
20260503034016 62 316 3.0 8.0 0.00 0.00 0.00 77 1012.5
20260503033016 63 301 3.0 7.0 0.00 0.00 0.00 77 1012.3
20260503032036 63 314 3.0 9.0 0.00 0.00 0.00 77 1012.1
20260503031016 63 325 3.0 8.0 0.00 0.00 0.00 77 1011.9
20260503030016 63 301 3.0 6.0 0.00 0.00 0.00 76 1011.8
20260503025016 64 292 4.0 8.0 0.00 0.00 0.00 76 1011.9
20260503024016 64 291 3.0 10.0 0.00 0.00 0.00 75 1012.0
20260503023016 65 284 3.0 8.0 0.00 0.00 0.00 75 1012.0
20260503022016 65 284 4.0 8.0 0.00 0.00 0.00 74 1012.0
20260503021016 66 289 4.0 8.0 0.00 0.00 0.00 73 1011.9
20260503020016 66 280 5.0 10.0 0.00 0.00 0.00 73 1012.0
20260503015036 67 276 5.0 11.0 0.00 0.00 0.00 72 1011.9
20260503014016 67 277 4.0 10.0 0.00 0.00 0.00 71 1011.7
20260503013036 68 294 4.0 10.0 0.00 0.00 0.00 71 1011.8
20260503012015 68 280 5.0 9.0 0.00 0.00 0.00 70 1011.8
20260503011016 68 297 4.0 8.0 0.00 0.00 0.00 69 1011.7
20260503010015 69 288 5.0 11.0 0.00 0.00 0.00 69 1011.7
20260503005015 69 262 5.0 11.0 0.00 0.00 0.00 69 1011.7
20260503004016 70 270 6.0 11.0 0.00 0.00 0.00 68 1011.7
20260503003036 70 264 5.0 12.0 0.00 0.00 0.00 67 1011.8
20260503002015 71 288 6.0 12.0 0.00 0.00 0.00 67 1011.8
20260503001015 71 272 6.0 12.0 0.00 0.00 0.00 66 1012.0
20260503000016 71 285 6.0 12.0 0.00 0.00 0.00 65 1011.8
20260502235016 72 276 3.0 11.0 0.00 0.00 0.00 66 1011.8
20260502234036 72 289 6.0 12.0 0.00 0.00 0.00 65 1012.0
20260502233036 73 275 5.0 14.0 0.00 0.00 0.00 65 1012.0
20260502232015 73 289 6.0 15.0 0.00 0.00 0.00 64 1011.9
20260502231016 73 276 7.0 13.0 0.00 0.00 0.00 64 1012.1
20260502230036 74 272 5.0 12.0 0.00 0.00 0.00 63 1012.1
20260502225015 74 284 7.0 14.0 0.00 0.00 0.00 62 1012.1
20260502224015 75 295 8.0 14.0 0.00 0.00 0.00 62 1012.3
20260502223016 76 292 6.0 17.0 0.00 0.00 0.00 61 1012.4